Location: Kott?ru
(16.6209°N, 80.6208°E)
Time: 01:24:01
(UTC+00:00)

Cosmos 1939 Rocket - Pass Details

Date: 18 September 2020
Orbit: 531 x 586 km, 97.4° (Epoch: 26 October)

Event Time Altitude Azimuth Distance (km) Brightness Sun altitude
Rises 13:10:46 0° 170° (S) 2,748 6.2 -9.0°
Reaches altitude 10° 13:12:53 10° 170° (S) 1,862 5.4 -9.5°
Maximum altitude 13:16:55 84° 256° (WSW) 581 3.0 -10.4°
Drops below altitude 10° 13:21:02 10° 347° (NNW) 1,892 5.8 -11.4°
Sets 13:23:12 0° 348° (NNW) 2,797 6.7 -11.9°
